Lid_Strength_Index
7 7 7 7 6 5 5 5 3 3 2 1 0 0 0 0 0 1 1 1 2 2 1 1 1 2 3 3 3 2 2 3 4 2 3 3 2 2 1 -0 -0 -0 1
6 7 6 7 6 6 6 6 5 4 3 2 1 0 0 0 0 1 1 1 1 2 1 2 2 2 2 2 2 2 2 1 3 4 3 3 3 3 2 1 1 1 1
6 7 7 7 7 6 6 6 5 4 4 3 2 1 1 0 1 1 1 1 1 1 2 2 1 1 2 1 1 2 1 1 1 3 4 4 3 4 3 2 2 2 2
6 6 6 6 5 5 5 5 5 5 4 3 2 2 2 2 1 1 1 1 1 1 1 1 1 1 1 1 1 2 1 2 2 4 4 4 3 3 3 3 3 3 2
7 7 6 6 6 5 5 4 5 4 4 3 2 2 2 2 1 3 2 1 1 1 1 1 1 1 2 2 1 1 1 2 2 4 4 4 4 3 3 2 2 2 2
6 5 4 4 4 4 4 4 4 4 4 4 3 3 2 1 5 7 4 2 1 1 1 1 0 1 2 4 5 4 2 2 2 4 4 4 4 3 2 2 3 3 4
5 5 4 4 4 4 4 4 4 4 4 4 4 3 2 2 5 8 7 2 2 1 1 1 1 0 1 0 3 4 5 6 4 1 2 3 3 3 3 3 2 2 3
5 5 4 4 4 4 4 4 4 4 4 4 4 3 3 2 4 7 7 2 1 1 0 1 1 1 1 2 1 1 1 1 1 2 1 1 1 1 2 2 2 1 1
5 4 4 4 4 4 4 4 4 4 4 4 3 3 3 2 4 6 5 2 1 1 0 0 0 1 4 5 1 2 1 1 2 4 6 6 7 7 4 2 3 4 3
4 4 3 3 3 3 3 4 3 3 3 3 2 2 3 2 4 5 4 2 2 1 1 0 4 4 7 7 1 2 2 2 1 1 1 1 4 4 7 3 1 3 3
4 4 3 3 3 3 4 4 4 3 3 3 3 3 2 2 2 5 6 3 3 2 2 1 1 8 8 7 6 2 2 2 2 2 2 1 1 1 0 3 2 2 3
4 4 4 3 4 3 4 4 3 4 4 4 4 3 3 2 4 5 5 5 5 4 3 1 1 7 9 9 8 7 7 6 3 2 2 3 2 2 1 0 1 1 1
4 4 4 4 3 3 4 4 4 4 4 4 4 4 3 2 2 5 5 5 5 5 3 3 6 8 8 7 7 7 7 3 2 2 3 2 2 1 0 0 0 0 1
3 4 4 4 4 4 4 4 4 4 4 4 4 4 4 3 3 3 3 3 5 5 4 3 5 6 6 5 5 2 1 1 1 2 2 1 1 1 1 1 2 1 2
4 4 4 4 5 5 4 4 4 3 4 4 4 4 4 4 2 5 5 4 3 4 4 3 3 4 3 3 1 1 1 2 2 1 2 2 2 2 2 1 2 2 3
4 4 4 5 5 5 5 5 6 6 7 7 8 7 4 5 6 6 6 7 7 7 5 4 3 2 3 3 2 2 2 2 3 3 3 3 3 2 2 2 2 3 3
4 5 5 6 6 6 6 6 6 5 6 6 7 7 8 7 7 7 7 7 8 8 5 4 3 3 2 2 2 2 2 2 2 3 4 4 4 3 4 3 3 3 3
6 7 6 6 6 5 5 6 6 7 7 5 5 6 6 7 7 7 7 7 6 6 4 3 3 2 2 2 3 2 2 3 3 3 3 3 3 3 4 3 3 3 3
6 6 5 5 5 5 4 4 5 5 4 4 3 4 5 6 5 6 7 5 4 3 2 2 2 2 2 2 2 2 2 2 3 3 3 3 3 3 3 3 3 7 6
5 5 5 4 4 4 4 4 4 4 3 3 3 3 3 4 3 3 4 5 5 4 3 2 2 2 2 2 2 2 2 3 3 3 3 3 3 2 3 3 4 3 4
5 4 7 4 4 3 4 4 3 3 3 3 3 4 9 5 3 3 3 3 3 3 3 3 4 4 3 3 3 4 4 4 4 4 4 4 4 4 3 3 4 3 4
4 4 4 4 4 4 4 4 4 4 4 4 4 4 8 4 4 4 4 4 4 5 5 5 5 5 4 5 5 5 6 6 5 6 5 5 4 4 4 4 4 5 5
4 5 4 4 4 6 5 5 5 5 5 5 5 5 5 5 5 5 5 5 5 6 5 6 6 5 5 5 5 6 7 7 7 6 7 6 6 5 5 6 5 6 7
5 5 5 5 5 5 6 6 6 7 6 6 6 6 6 6 6 6 6 6 6 6 7 7 7 7 7 7 6 6 6 7 8 7 7 7 7 7 6 6 6 7 8
5 5 5 5 6 6 6 6 7 6 6 6 6 7 7 6 6 7 7 7 7 7 8 8 8 8 8 7 7 7 8 11 10 11 8 6 7 6 6 6 7 8 8
6 6 7 7 7 6 6 6 7 8 8 7 7 7 7 8 8 8 8 8 8 8 8 9 8 8 8 7 7 9 10 11 10 12 7 6 7 7 7 7 8 9 9